TimeCST,TemperatureF,Dew PointF,Humidity,Sea Level PressureIn,VisibilityMPH,Wind Direction,Wind SpeedMPH,Gust SpeedMPH,PrecipitationIn,Events,Conditions,WindDirDegrees,DateUTC
12:15 AM,5.9,-3.1,67,30.21,4.0,West,11.5,19.6,N/A,Snow,Light Snow,280,2013-01-22 06:15:00
12:35 AM,5.5,-1.3,73,30.21,3.0,WNW,9.2,18.4,N/A,Snow,Light Snow,290,2013-01-22 06:35:00
12:55 AM,5.4,-1.3,74,30.22,2.0,West,15.0,23.0,N/A,Snow,Light Snow,280,2013-01-22 06:55:00
1:15 AM,5.0,-1.1,76,30.22,1.8,West,16.1,19.6,N/A,Snow,Light Snow,280,2013-01-22 07:15:00
1:55 AM,4.8,-1.5,75,30.23,3.0,West,11.5,17.3,N/A,Snow,Light Snow,280,2013-01-22 07:55:00
2:15 AM,4.1,-1.3,78,30.24,2.0,WSW,9.2,18.4,N/A,Snow,Light Snow,250,2013-01-22 08:15:00
2:35 AM,3.7,-1.5,79,30.24,2.0,West,10.4,-,N/A,Snow,Light Snow,260,2013-01-22 08:35:00
2:55 AM,3.2,-1.8,80,30.24,2.0,West,11.5,-,N/A,Snow,Light Snow,260,2013-01-22 08:55:00
3:15 AM,2.8,-2.2,79,30.24,2.0,West,11.5,-,N/A,Snow,Light Snow,260,2013-01-22 09:15:00
3:35 AM,2.7,-2.4,79,30.25,2.0,West,11.5,-,N/A,Snow,Light Snow,260,2013-01-22 09:35:00
3:55 AM,2.8,-2.2,79,30.25,2.0,West,11.5,-,N/A,Snow,Light Snow,260,2013-01-22 09:55:00
4:15 AM,2.7,-2.2,80,30.26,1.8,West,10.4,-,N/A,Snow,Light Snow,260,2013-01-22 10:15:00
4:35 AM,2.7,-2.2,80,30.26,1.5,West,10.4,-,N/A,Snow,Light Snow,260,2013-01-22 10:35:00
4:55 AM,2.3,-2.6,80,30.26,1.5,West,11.5,-,N/A,Snow,Light Snow,260,2013-01-22 10:55:00
5:15 AM,1.4,-3.3,81,30.27,2.5,West,9.2,-,N/A,Snow,Light Snow,260,2013-01-22 11:15:00
5:35 AM,1.2,-3.6,80,30.27,2.5,WSW,10.4,-,N/A,Snow,Light Snow,250,2013-01-22 11:35:00
5:55 AM,1.0,-4.0,79,30.28,3.0,WSW,11.5,-,N/A,,Haze,250,2013-01-22 11:55:00
6:15 AM,1.0,-4.0,79,30.28,3.0,WSW,11.5,-,N/A,,Haze,250,2013-01-22 12:15:00
6:35 AM,0.9,-4.0,80,30.29,3.0,WSW,11.5,-,N/A,,Haze,250,2013-01-22 12:35:00
6:55 AM,1.2,-4.0,79,30.30,3.0,WSW,10.4,-,N/A,Snow,Light Snow,250,2013-01-22 12:55:00
7:15 AM,0.9,-4.4,79,30.30,3.0,WSW,9.2,-,N/A,Snow,Light Snow,250,2013-01-22 13:15:00
7:35 AM,1.0,-4.4,78,30.31,2.5,West,12.7,-,N/A,Snow,Light Snow,260,2013-01-22 13:35:00
7:55 AM,1.0,-5.1,75,30.31,4.0,WSW,12.7,-,N/A,,Haze,250,2013-01-22 13:55:00
8:15 AM,1.0,-5.1,75,30.32,2.0,West,11.5,17.3,N/A,Snow,Light Snow,260,2013-01-22 14:15:00
8:35 AM,1.4,-4.7,76,30.33,1.5,West,12.7,17.3,N/A,Snow,Light Snow,260,2013-01-22 14:35:00
8:55 AM,2.1,-4.7,73,30.33,2.0,West,10.4,-,N/A,,Haze,270,2013-01-22 14:55:00
9:15 AM,2.8,-4.5,71,30.33,3.0,West,11.5,-,N/A,,Haze,270,2013-01-22 15:15:00
9:35 AM,3.6,-4.5,69,30.34,2.5,West,10.4,-,N/A,,Haze,270,2013-01-22 15:35:00
9:55 AM,4.1,-4.9,66,30.34,7.0,West,13.8,19.6,N/A,,Mostly Cloudy,270,2013-01-22 15:55:00
10:15 AM,5.0,-4.5,65,30.35,10.0,West,12.7,16.1,N/A,,Scattered Clouds,270,2013-01-22 16:15:00
10:35 AM,5.0,-4.9,64,30.34,10.0,West,10.4,-,N/A,,Clear,270,2013-01-22 16:35:00
10:55 AM,5.7,-5.3,61,30.34,10.0,West,13.8,-,N/A,,Clear,260,2013-01-22 16:55:00
11:15 AM,5.9,-5.3,60,30.33,10.0,West,11.5,19.6,N/A,,Clear,280,2013-01-22 17:15:00
11:35 AM,6.4,-4.9,60,30.33,10.0,West,10.4,17.3,N/A,,Clear,280,2013-01-22 17:35:00
11:55 AM,6.8,-6.2,55,30.32,10.0,West,6.9,-,N/A,,Clear,260,2013-01-22 17:55:00
12:15 PM,7.3,-6.0,55,30.31,10.0,West,8.1,-,N/A,,Clear,280,2013-01-22 18:15:00
12:35 PM,7.9,-6.3,52,30.31,10.0,West,10.4,17.3,N/A,,Clear,270,2013-01-22 18:35:00
12:55 PM,8.6,-5.8,52,30.31,10.0,West,8.1,-,N/A,,Clear,260,2013-01-22 18:55:00
1:15 PM,8.6,-5.3,53,30.31,10.0,West,8.1,-,N/A,,Clear,260,2013-01-22 19:15:00
1:35 PM,9.3,-5.6,51,30.31,10.0,West,9.2,-,N/A,,Scattered Clouds,280,2013-01-22 19:35:00
1:55 PM,9.5,-5.6,50,30.30,10.0,WSW,10.4,-,N/A,,Clear,250,2013-01-22 19:55:00
2:15 PM,9.5,-6.5,48,30.30,10.0,WSW,8.1,-,N/A,,Clear,250,2013-01-22 20:15:00
2:35 PM,9.9,-6.5,48,30.30,10.0,West,9.2,-,N/A,,Clear,270,2013-01-22 20:35:00
2:55 PM,10.0,-6.3,48,30.30,10.0,West,11.5,-,N/A,,Clear,260,2013-01-22 20:55:00
3:15 PM,9.3,-6.7,48,30.30,10.0,West,10.4,-,N/A,,Clear,280,2013-01-22 21:15:00
3:35 PM,8.2,-7.1,50,30.30,10.0,West,8.1,-,N/A,,Scattered Clouds,270,2013-01-22 21:35:00
3:55 PM,9.1,-6.3,50,30.31,10.0,West,9.2,-,N/A,,Scattered Clouds,270,2013-01-22 21:55:00
4:15 PM,8.4,-6.0,52,30.31,10.0,West,9.2,-,N/A,,Clear,270,2013-01-22 22:15:00
4:35 PM,7.7,-6.7,52,30.31,10.0,West,6.9,-,N/A,,Mostly Cloudy,270,2013-01-22 22:35:00
4:55 PM,7.0,-6.7,54,30.31,10.0,West,8.1,-,N/A,,Mostly Cloudy,270,2013-01-22 22:55:00
5:15 PM,7.3,-7.2,51,30.31,10.0,WSW,8.1,-,N/A,,Mostly Cloudy,250,2013-01-22 23:15:00
5:35 PM,6.8,-6.5,55,30.30,10.0,WSW,5.8,-,N/A,,Mostly Cloudy,250,2013-01-22 23:35:00
5:55 PM,7.7,-5.3,56,30.30,10.0,WSW,5.8,-,N/A,,Scattered Clouds,250,2013-01-22 23:55:00
6:15 PM,8.1,-4.9,56,30.30,10.0,WSW,8.1,-,N/A,,Clear,250,2013-01-23 00:15:00
6:35 PM,8.4,-4.9,55,30.30,10.0,WSW,8.1,-,N/A,,Clear,250,2013-01-23 00:35:00
6:55 PM,8.6,-4.5,55,30.29,10.0,WSW,9.2,-,N/A,,Scattered Clouds,250,2013-01-23 00:55:00
7:15 PM,8.2,-4.5,56,30.29,10.0,WSW,9.2,-,N/A,,Scattered Clouds,250,2013-01-23 01:15:00
7:35 PM,7.7,-4.4,58,30.29,10.0,WSW,9.2,-,N/A,,Scattered Clouds,250,2013-01-23 01:35:00
7:55 PM,7.5,-4.0,59,30.29,10.0,WSW,6.9,-,N/A,,Scattered Clouds,240,2013-01-23 01:55:00
8:15 PM,8.1,-3.5,59,30.29,10.0,WSW,8.1,-,N/A,,Scattered Clouds,240,2013-01-23 02:15:00
8:35 PM,8.2,-3.3,59,30.29,10.0,WSW,8.1,-,N/A,,Clear,240,2013-01-23 02:35:00
8:55 PM,8.2,-3.6,58,30.29,10.0,WSW,6.9,-,N/A,,Clear,240,2013-01-23 02:55:00
9:15 PM,8.1,-4.0,58,30.30,10.0,WSW,8.1,-,N/A,,Scattered Clouds,250,2013-01-23 03:15:00
9:35 PM,8.2,-4.0,58,30.30,10.0,WSW,10.4,-,N/A,,Mostly Cloudy,250,2013-01-23 03:35:00
9:55 PM,8.6,-4.0,57,30.31,10.0,WSW,8.1,-,N/A,,Overcast,250,2013-01-23 03:55:00
10:15 PM,8.4,-4.0,57,30.30,10.0,WSW,9.2,-,N/A,,Mostly Cloudy,250,2013-01-23 04:15:00
10:55 PM,8.6,-3.5,58,30.31,10.0,WSW,8.1,-,N/A,,Scattered Clouds,250,2013-01-23 04:55:00
11:15 PM,8.6,-3.1,59,30.31,10.0,WSW,8.1,-,N/A,,Mostly Cloudy,250,2013-01-23 05:15:00
11:35 PM,8.6,-3.3,59,30.31,10.0,WSW,6.9,-,N/A,,Overcast,250,2013-01-23 05:35:00
11:55 PM,8.6,-3.1,59,30.31,10.0,WSW,8.1,-,N/A,,Overcast,250,2013-01-23 05:55:00